This demonstration page uses our WeatherBlox Daily Observations layout. Learn more.

Left ArrowRight Arrow

39.12711, -84.51439

Hourly Observations for May 12, 2021

Temp ( °F °C ) Dew Point ( °F °C ) Humidity (%) Winds ( mph kmh ) Pressure ( in mb ) Visibility ( mi km ) Precip ( " mm )
12:53 am 00:53 Clear 44 6.7 37 2.8 76 76 NE 5 7 30.35 1028 10 16.0934 N/A
1:53 am 01:53 Clear 46 7.8 36 2.2 68 68 N N/A 30.34 1027 10 16.0934 N/A
2:53 am 02:53 Clear 45 7.2 40 4.4 83 83 N N/A 30.34 1028 10 16.0934 N/A
3:53 am 03:53 Clear 44 6.7 39 3.9 83 83 N N/A 30.34 1028 10 16.0934 N/A
4:53 am 04:53 Clear 42 5.6 38 3.3 85 85 N N/A 30.36 1028 10 16.0934 N/A
5:53 am 05:53 Clear 41 5 35 1.7 79 79 N N/A 30.37 1029 10 16.0934 N/A
6:53 am 06:53 Sunny 39 3.9 37 2.8 93 93 N N/A 30.39 1029 10 16.0934 N/A
7:53 am 07:53 Sunny 44 6.7 39 3.9 83 83 N N/A 30.4 1030 10 16.0934 N/A
8:53 am 08:53 Sunny 48 8.9 37 2.8 66 66 NE 6 9 30.41 1030 10 16.0934 N/A
9:53 am 09:53 Sunny 53 11.7 36 2.2 52 52 E 6 9 30.42 1030 10 16.0934 N/A
10:53 am 10:53 Sunny 56 13.3 35 1.7 46 46 E 13 20 30.4 1029 10 16.0934 N/A
11:53 am 11:53 Sunny 58 14.4 35 1.7 42 42 NE 13 20 30.39 1029 10 16.0934 N/A
12:53 pm 12:53 Mostly Sunny 61 16.1 37 2.8 41 41 E 13 20 30.38 1029 10 16.0934 N/A
1:53 pm 13:53 Partly Cloudy 61 16.1 36 2.2 39 39 ENE 12 19 30.37 1028 10 16.0934 N/A
2:53 pm 14:53 Partly Cloudy 62 16.7 36 2.2 38 38 NE 15 24 30.36 1028 10 16.0934 N/A
3:53 pm 15:53 Mostly Cloudy 64 17.8 37 2.8 37 37 NE 17 28 30.34 1028 10 16.0934 N/A
4:53 pm 16:53 Partly Cloudy 63 17.2 37 2.8 38 38 NE 13 20 30.33 1027 10 16.0934 N/A
5:53 pm 17:53 Partly Cloudy 63 17.2 35 1.7 35 35 ENE 9 15 30.32 1027 10 16.0934 N/A
6:53 pm 18:53 Mostly Sunny 62 16.7 34 1.1 35 35 NE 10 17 30.32 1027 10 16.0934 N/A
7:53 pm 19:53 Sunny 57 13.9 35 1.7 44 44 NE 7 11 30.31 1027 10 16.0934 N/A
8:53 pm 20:53 Clear 54 12.2 36 2.2 51 51 NE 5 7 30.33 1027 10 16.0934 N/A
9:53 pm 21:53 Clear 47 8.3 41 5 80 80 N N/A 30.35 1028 10 16.0934 N/A
10:53 pm 22:53 Clear 46 7.8 40 4.4 79 79 N N/A 30.37 1028 10 16.0934 N/A
11:53 pm 23:53 Clear 44 6.7 40 4.4 85 85 N N/A 30.37 1029 10 16.0934 N/A

Powered by AerisWeather